Date String (YYYY-MM-DD hh:mm:ss) UTC,Instrument flags,Ambient pressure (hPa),Sample flow (lpm),Bypass flow (lpm),Sample temperature (°C),Ambient temperature (°C),ASC tube jacket temperature (°C),LED temperature (°C),Box temperature (°C),Sample RH (%),Span deviation,Mass concentration (μg/m³),Mass concentration (μg/m³),Mass concentration (μg/m³)
DateTimeUTC,F1_M11,P_M11,Q1_M11,Q2_M11,T1_M11,T2_M11,T3_M11,T4_M11,T5_M11,U1_M11,ZSPAN_M11,X0_M11,X2_M11,X1_M11
2022-12-25 21:00:00,,0824.5,5.02,0.00,21.8,20.3,00.0,30.7,23.5,14.1,0000.0,0001.79,0000.25,0000.18
2022-12-25 21:01:00,,0824.5,5.00,0.00,21.8,20.3,00.0,30.7,23.5,14.1,0000.0,0002.05,0000.24,0000.18
2022-12-25 21:02:00,,0824.7,4.97,0.00,21.8,20.3,00.0,30.7,23.4,14.1,0000.0,0003.31,0000.24,0000.18
2022-12-25 21:03:00,,0824.8,4.98,0.00,21.8,20.3,00.0,30.7,23.4,14.4,0000.0,0003.32,0000.25,0000.19
2022-12-25 21:04:00,,0824.7,5.00,0.00,21.8,20.3,00.0,30.7,23.4,14.8,0000.0,0003.32,0000.26,0000.19
2022-12-25 21:05:00,,0824.8,5.03,0.00,21.8,20.3,00.0,30.7,23.5,14.9,0000.0,0003.33,0000.26,0000.18
2022-12-25 21:06:00,,0824.6,5.00,0.00,21.7,20.3,00.0,30.7,23.5,15.0,0000.0,0003.54,0000.24,0000.18
2022-12-25 21:07:00,,0824.7,4.97,0.00,21.7,20.3,00.0,30.7,23.4,15.0,0000.0,0003.17,0000.23,0000.17
2022-12-25 21:08:00,,0824.5,4.99,0.00,21.7,20.3,00.0,30.7,23.5,14.8,0000.0,0002.15,0000.21,0000.17
2022-12-25 21:09:00,,0824.6,5.01,0.00,21.7,20.2,00.0,30.6,23.5,14.6,0000.0,0002.97,0000.21,0000.17
2022-12-25 21:10:00,,0824.5,5.01,0.00,21.7,20.2,00.0,30.6,23.5,14.5,0000.0,0003.87,0000.22,0000.17
2022-12-25 21:11:00,,0824.6,4.98,0.00,21.7,20.2,00.0,30.6,23.4,14.6,0000.0,0003.84,0000.21,0000.16
2022-12-25 21:12:00,,0824.7,4.97,0.00,21.7,20.2,00.0,30.6,23.3,14.8,0000.0,0003.51,0000.21,0000.16
2022-12-25 21:13:00,,0824.7,5.00,0.00,21.7,20.2,00.0,30.6,23.3,15.2,0000.0,0002.28,0000.20,0000.16
2022-12-25 21:14:00,,0824.7,4.99,0.00,21.7,20.2,00.0,30.6,23.4,15.0,0000.0,0002.31,0000.21,0000.16
2022-12-25 21:15:00,,0824.9,5.02,0.00,21.7,20.2,00.0,30.6,23.3,15.1,0000.0,0002.32,0000.21,0000.16
2022-12-25 21:16:00,,0825.1,5.00,0.00,21.6,20.2,00.0,30.6,23.2,15.4,0000.0,0002.31,0000.20,0000.16
2022-12-25 21:17:00,,0825.1,4.98,0.00,21.6,20.2,00.0,30.6,23.3,14.7,0000.0,0002.07,0000.20,0000.16
2022-12-25 21:18:00,,0825.0,4.98,0.00,21.6,20.2,00.0,30.6,23.3,15.0,0000.0,0002.00,0000.20,0000.16
2022-12-25 21:19:00,,0825.0,5.01,0.00,21.6,20.2,00.0,30.5,23.2,15.4,0000.0,0002.03,0000.22,0000.16
2022-12-25 21:20:00,,0825.0,5.01,0.00,21.6,20.2,00.0,30.5,23.3,15.4,0000.0,0001.23,0000.23,0000.17
2022-12-25 21:21:00,,0825.0,5.02,0.00,21.6,20.2,00.0,30.5,23.3,15.3,0000.0,0000.43,0000.25,0000.18
2022-12-25 21:22:00,,0824.9,4.98,0.00,21.6,20.2,00.0,30.5,23.3,14.8,0000.0,0000.48,0000.27,0000.18
2022-12-25 21:23:00,,0824.9,4.96,0.00,21.6,20.2,00.0,30.5,23.3,14.9,0000.0,0000.50,0000.28,0000.18
2022-12-25 21:24:00,,0824.9,5.07,0.00,21.6,20.2,00.0,30.5,23.3,15.3,0000.0,0000.51,0000.29,0000.18
2022-12-25 21:25:00,,0824.8,4.98,0.00,21.6,20.2,00.0,30.5,23.3,15.3,0000.0,0000.81,0000.28,0000.18
2022-12-25 21:26:00,,0824.8,4.97,0.00,21.6,20.1,00.0,30.5,23.3,15.1,0000.0,0000.82,0000.28,0000.18
2022-12-25 21:27:00,,0824.7,4.98,0.00,21.6,20.1,00.0,30.5,23.3,15.5,0000.0,0000.81,0000.28,0000.18
2022-12-25 21:28:00,,0824.6,5.02,0.00,21.6,20.1,00.0,30.5,23.3,14.7,0000.0,0000.82,0000.29,0000.19
2022-12-25 21:29:00,,0824.4,5.01,0.00,21.6,20.1,00.0,30.5,23.3,14.6,0000.0,0000.87,0000.30,0000.19
2022-12-25 21:30:00,,0824.5,5.02,0.00,21.6,20.1,00.0,30.5,23.3,14.9,0000.0,0001.70,0000.29,0000.20
2022-12-25 21:31:00,,0824.6,4.99,0.00,21.6,20.1,00.0,30.5,23.3,14.8,0000.0,0001.71,0000.29,0000.19
2022-12-25 21:32:00,,0824.8,4.97,0.00,21.5,20.1,00.0,30.4,23.2,14.6,0000.0,0001.63,0000.26,0000.19
2022-12-25 21:33:00,,0824.8,5.01,0.00,21.5,20.1,00.0,30.4,23.2,14.6,0000.0,0001.59,0000.25,0000.18
2022-12-25 21:34:00,,0824.7,5.02,0.00,21.5,20.1,00.0,30.4,23.2,14.9,0000.0,0001.57,0000.24,0000.19
2022-12-25 21:35:00,,0824.3,5.02,0.00,21.5,20.1,00.0,30.4,23.3,15.5,0000.0,0001.54,0000.23,0000.19
2022-12-25 21:36:00,,0824.4,4.98,0.00,21.5,20.1,00.0,30.4,23.3,15.2,0000.0,0001.23,0000.23,0000.18
2022-12-25 21:37:00,,0824.7,4.96,0.00,21.5,20.1,00.0,30.4,23.3,14.8,0000.0,0001.23,0000.22,0000.18
2022-12-25 21:38:00,,0824.6,4.98,0.00,21.5,20.1,00.0,30.4,23.3,14.7,0000.0,0001.23,0000.22,0000.18
2022-12-25 21:39:00,,0824.5,4.99,0.00,21.5,20.1,00.0,30.4,23.3,15.3,0000.0,0001.24,0000.23,0000.19
2022-12-25 21:40:00,,0824.5,5.03,0.00,21.5,20.1,00.0,30.4,23.2,15.5,0000.0,0001.20,0000.23,0000.19
2022-12-25 21:41:00,,0824.3,5.03,0.00,21.5,20.1,00.0,30.4,23.2,15.6,0000.0,0000.37,0000.24,0000.19
2022-12-25 21:42:00,,0824.2,4.99,0.00,21.5,20.1,00.0,30.4,23.2,15.7,0000.0,0002.12,0000.28,0000.19
2022-12-25 21:43:00,,0824.5,4.98,0.00,21.5,20.1,00.0,30.4,23.2,15.5,0000.0,0002.27,0000.30,0000.19
2022-12-25 21:44:00,,0824.3,4.96,0.00,21.5,20.1,00.0,30.4,23.2,15.7,0000.0,0002.30,0000.31,0000.20
2022-12-25 21:45:00,,0824.2,5.03,0.00,21.5,20.0,00.0,30.3,23.2,15.6,0000.0,0002.32,0000.31,0000.20
2022-12-25 21:46:00,,0824.2,5.01,0.00,21.4,20.1,00.0,30.3,23.2,15.4,0000.0,0002.34,0000.32,0000.20
2022-12-25 21:47:00,,0824.2,5.01,0.00,21.5,20.8,00.0,30.3,23.4,15.3,0000.0,0002.32,0000.31,0000.20
2022-12-25 21:48:00,,0824.2,4.95,0.00,21.6,21.8,00.0,30.3,23.7,15.6,0000.0,0002.35,0000.33,0000.20
2022-12-25 21:49:00,,0824.1,5.02,0.00,21.7,21.8,00.0,30.4,23.8,15.6,0000.0,0002.37,0000.33,0000.20
2022-12-25 21:50:00,,0824.1,5.01,0.00,21.8,21.6,00.0,30.4,23.8,15.3,0000.0,0002.36,0000.33,0000.20
2022-12-25 21:51:00,,0824.0,5.00,0.00,21.8,21.3,00.0,30.5,23.7,15.3,0000.0,0002.38,0000.32,0000.19
2022-12-25 21:52:00,,0824.1,4.96,0.00,21.8,21.1,00.0,30.5,23.7,15.3,0000.0,0002.41,0000.32,0000.19
2022-12-25 21:53:00,,0824.1,5.01,0.00,21.8,21.0,00.0,30.5,23.7,15.4,0000.0,0000.57,0000.27,0000.19
2022-12-25 21:54:00,,0824.2,5.03,0.00,21.8,20.8,00.0,30.5,23.6,15.4,0000.0,0000.48,0000.25,0000.19
2022-12-25 21:55:00,,0824.3,5.00,0.00,21.8,20.8,00.0,30.6,23.7,15.3,0000.0,0000.48,0000.26,0000.19
2022-12-25 21:56:00,,0824.3,4.98,0.00,21.8,20.7,00.0,30.6,23.6,15.7,0000.0,0000.46,0000.25,0000.20
2022-12-25 21:57:00,,0824.3,4.96,0.00,21.8,20.7,00.0,30.6,23.6,15.8,0000.0,0000.43,0000.24,0000.19
2022-12-25 21:58:00,,0824.4,5.01,0.00,21.8,20.6,00.0,30.6,23.6,15.5,0000.0,0000.45,0000.25,0000.20
2022-12-25 21:59:00,,0824.2,5.01,0.00,21.8,20.6,00.0,30.6,23.5,15.7,0000.0,0000.55,0000.24,0000.19
